Weather History for KHHF - March, 2013

Change the Weather History Date:

Tuesday, March 19, 2013

  Actual Average (KPPA) Record (KPPA)
Temperature  
Mean Temperature 44 °F -  
Max Temperature 57 °F 59 °F 91 °F (2004)
Min Temperature 31 °F 32 °F 11 °F (1965)
Degree Days  
Heating Degree Days 21    
Moisture  
Dew Point 27 °F    
Average Humidity 51    
Maximum Humidity 87    
Minimum Humidity 25    
Precipitation  
Precipitation 0.00 in - - ()
Sea Level Pressure  
Sea Level Pressure 30.07 in    
Wind  
Wind Speed 4 mph (ENE)    
Max Wind Speed 15 mph    
Max Gust Speed 22 mph    
Visibility 10 miles    
Events      
Averages and records for this station are not official NWS values.
T = Trace of Precipitation, MM = Missing Value Source: NWS Daily Summary

Daily Weather History Graph

Daily Weather History Graph

Search for Another Location

Airport or City:

Trip Planner

Search our weather history database for the weather conditions in past years. The results will help you decide how hot, cold, wet, or windy it might be!

Date:

Astronomy

Mar. 19, 2013 Rise Set
Actual Time 7:46 AM CDT 7:52 PM CDT
Civil Twilight 7:20 AM CDT 8:18 PM CDT
Nautical Twilight 6:50 AM CDT 8:48 PM CDT
Astronomical Twilight 6:20 AM CDT 9:18 PM CDT
Moon 12:48 PM CDT (3/19) 2:30 AM CDT (3/19)
Length of Visible Light 12h 57m
Length of Day
12h 06m
Waxing Crescent, 50% of the Moon is Illuminated
Mar 19
Waxing Crescent
Mar 19
First Quarter
Mar 27
Full
Apr 2
Last Quarter
Apr 10
New

Hourly Weather History & Observations

Time (CDT) Temp. Windchill Dew Point Humidity Pressure Visibility Wind Dir Wind Speed Gust Speed Precip Events Conditions
12:15 AM 46.4 °F 42.4 °F 23.9 °F 41% 29.97 in 10.0 mi SSE 8.1 mph - N/A   Clear
12:35 AM 46.0 °F 42.5 °F 24.6 °F 43% 29.97 in 10.0 mi SE 6.9 mph - N/A   Clear
12:55 AM 43.9 °F 39.9 °F 25.2 °F 48% 29.98 in 10.0 mi ESE 6.9 mph - N/A   Clear
1:15 AM 40.1 °F 36.1 °F 25.7 °F 56% 29.97 in 10.0 mi East 5.8 mph - N/A   Clear
1:35 AM 40.1 °F - 26.1 °F 57% 29.98 in 10.0 mi Calm Calm - N/A   Clear
1:55 AM 39.7 °F - 26.2 °F 59% 29.98 in 10.0 mi Calm Calm - N/A   Clear
2:15 AM 39.6 °F - 26.6 °F 60% 29.98 in 10.0 mi Calm Calm - N/A   Clear
2:35 AM 37.4 °F - 27.3 °F 67% 29.99 in 10.0 mi Calm Calm - N/A   Clear
2:55 AM 37.4 °F - 26.6 °F 65% 29.99 in 10.0 mi Calm Calm - N/A   Clear
3:15 AM 37.4 °F - 27.1 °F 66% 29.98 in 10.0 mi Calm Calm - N/A   Clear
3:35 AM 37.4 °F - 27.1 °F 66% 29.99 in 10.0 mi Calm Calm - N/A   Clear
3:55 AM 36.0 °F - 27.1 °F 70% 29.98 in 10.0 mi Calm Calm - N/A   Clear
4:15 AM 35.1 °F - 27.1 °F 73% 29.98 in 10.0 mi Calm Calm - N/A   Clear
4:35 AM 34.5 °F - 27.3 °F 75% 29.98 in 10.0 mi Calm Calm - N/A   Clear
4:55 AM 34.9 °F - 27.1 °F 73% 29.98 in 10.0 mi Calm Calm - N/A   Clear
5:15 AM 32.9 °F 29.8 °F 27.3 °F 80% 29.98 in 10.0 mi North 3.5 mph - N/A   Clear
5:35 AM 32.5 °F - 27.3 °F 81% 29.99 in 10.0 mi Calm Calm - N/A   Clear
5:55 AM 33.4 °F - 27.7 °F 79% 29.99 in 10.0 mi Calm Calm - N/A   Clear
6:15 AM 32.4 °F - 27.5 °F 82% 29.99 in 10.0 mi Calm Calm - N/A   Clear
6:35 AM 31.6 °F - 27.1 °F 83% 30.01 in 10.0 mi Calm Calm - N/A   Clear
6:55 AM 32.2 °F - 27.5 °F 83% 30.01 in 10.0 mi Calm Calm - N/A   Clear
7:15 AM 33.1 °F - 27.5 °F 80% 30.02 in 10.0 mi Calm Calm - N/A   Clear
7:35 AM 31.6 °F - 27.9 °F 86% 30.03 in 10.0 mi Calm Calm - N/A   Clear
7:55 AM 32.2 °F - 28.8 °F 87% 30.03 in 10.0 mi Calm Calm - N/A   Clear
8:15 AM 32.9 °F - 29.5 °F 87% 30.04 in 10.0 mi Calm Calm - N/A   Clear
8:35 AM 34.7 °F 31.8 °F 30.6 °F 85% 30.04 in 10.0 mi SSE 3.5 mph - N/A   Clear
8:55 AM 40.3 °F 38.2 °F 28.9 °F 64% 30.05 in 10.0 mi ENE 3.5 mph - N/A   Clear
9:15 AM 40.5 °F 37.3 °F 29.5 °F 65% 30.06 in 10.0 mi East 4.6 mph - N/A   Clear
9:35 AM 41.5 °F 38.6 °F 30.9 °F 66% 30.07 in 10.0 mi East 4.6 mph - N/A   Clear
9:55 AM 41.9 °F 40.0 °F 31.3 °F 66% 30.07 in 10.0 mi East 3.5 mph - N/A   Clear
10:15 AM 46.4 °F 41.1 °F 33.4 °F 61% 30.07 in 10.0 mi SSE 11.5 mph 17.3 mph N/A   Clear
10:35 AM 49.5 °F - 32.0 °F 51% 30.06 in 10.0 mi SSE 8.1 mph 19.6 mph N/A   Clear
10:55 AM 50.2 °F - 31.1 °F 48% 30.07 in 10.0 mi South 15.0 mph 21.9 mph N/A   Clear
11:15 AM 50.9 °F - 31.1 °F 47% 30.07 in 10.0 mi South 12.7 mph 18.4 mph N/A   Clear
11:55 AM 52.5 °F - 29.8 °F 42% 30.08 in 10.0 mi SSE 11.5 mph - N/A   Clear
12:55 PM 53.2 °F - 25.5 °F 34% 30.09 in 10.0 mi South 8.1 mph - N/A   Clear
1:15 PM 53.6 °F - 25.5 °F 34% 30.09 in 10.0 mi South 6.9 mph - N/A   Clear
1:35 PM 53.6 °F - 25.9 °F 34% 30.10 in 10.0 mi SSE 6.9 mph - N/A   Clear
1:55 PM 53.8 °F - 25.7 °F 34% 30.11 in 10.0 mi East 3.5 mph - N/A   Clear
2:15 PM 54.0 °F - 25.7 °F 34% 30.11 in 10.0 mi ESE 3.5 mph - N/A   Clear
2:35 PM 54.5 °F - 25.7 °F 33% 30.10 in 10.0 mi ENE 3.5 mph - N/A   Clear
2:55 PM 54.9 °F - 25.7 °F 32% 30.10 in 10.0 mi Calm Calm - N/A   Clear
3:15 PM 54.9 °F - 26.1 °F 33% 30.09 in 10.0 mi ENE 3.5 mph - N/A   Mostly Cloudy
3:35 PM 55.2 °F - 26.1 °F 33% 30.09 in 10.0 mi Calm Calm - N/A   Scattered Clouds
3:55 PM 54.9 °F - 25.9 °F 33% 30.09 in 10.0 mi Calm Calm - N/A   Scattered Clouds
4:15 PM 55.4 °F - 26.1 °F 32% 30.09 in 10.0 mi Calm Calm - N/A   Mostly Cloudy
4:35 PM 55.6 °F - 26.6 °F 33% 30.09 in 10.0 mi Calm Calm - N/A   Scattered Clouds
4:55 PM 56.1 °F - 27.1 °F 33% 30.09 in 10.0 mi North 3.5 mph - N/A   Scattered Clouds
5:15 PM 55.8 °F - 26.8 °F 33% 30.10 in 10.0 mi NW 3.5 mph - N/A   Clear
5:35 PM 56.3 °F - 26.6 °F 32% 30.10 in 10.0 mi NNW 4.6 mph - N/A   Clear
5:55 PM 56.5 °F - 26.6 °F 32% 30.10 in 10.0 mi North 3.5 mph - N/A   Clear
6:15 PM 57.4 °F - 26.4 °F 31% 30.10 in 10.0 mi NNE 8.1 mph - N/A   Clear
6:35 PM 57.4 °F - 26.8 °F 31% 30.11 in 10.0 mi NNE 5.8 mph - N/A   Clear
6:55 PM 57.4 °F - 27.7 °F 32% 30.12 in 10.0 mi NNE 5.8 mph - N/A   Scattered Clouds
7:15 PM 56.3 °F - 23.0 °F 28% 30.12 in 10.0 mi NNE 15.0 mph 20.7 mph N/A   Scattered Clouds
7:35 PM 55.4 °F - 19.9 °F 25% 30.13 in 10.0 mi NNE 10.4 mph - N/A   Clear
7:55 PM 54.9 °F - 21.2 °F 27% 30.14 in 10.0 mi NNE 8.1 mph - N/A   Clear
8:15 PM 52.9 °F - 21.9 °F 30% 30.15 in 10.0 mi NNE 5.8 mph - N/A   Clear
8:35 PM 51.1 °F - 23.0 °F 33% 30.16 in 10.0 mi NNE 3.5 mph - N/A   Clear
8:55 PM 50.5 °F - 23.5 °F 35% 30.16 in 10.0 mi NNE 3.5 mph - N/A   Clear
9:15 PM 49.6 °F - 24.1 °F 37% 30.17 in 10.0 mi Calm Calm - N/A   Clear
9:35 PM 50.0 °F - 24.3 °F 37% 30.18 in 10.0 mi Calm Calm - N/A   Clear
9:55 PM 48.2 °F - 23.9 °F 39% 30.19 in 10.0 mi Calm Calm - N/A   Clear
10:15 PM 46.0 °F 44.8 °F 25.5 °F 45% 30.20 in 10.0 mi North 3.5 mph - N/A   Clear
10:35 PM 46.4 °F 45.2 °F 25.5 °F 44% 30.21 in 10.0 mi North 3.5 mph - N/A   Clear
10:55 PM 44.6 °F - 27.0 °F 50% 30.22 in 10.0 mi Calm Calm - N/A   Clear
11:15 PM 45.9 °F - 26.1 °F 46% 30.23 in 10.0 mi Calm Calm - N/A   Clear
11:35 PM 45.7 °F - 23.7 °F 42% 30.24 in 10.0 mi Calm Calm - N/A   Clear
11:55 PM 44.1 °F - 23.2 °F 44% 30.24 in 10.0 mi Calm Calm - N/A   Clear